This is the latest recevied weather packets stored in our database for station/object KB7STN. If no packets are shown the sender has not sent any weather packets the latest 10 day(s).
| Time | Temp. | Humidity | Pressure | Rain* | Wind** | Luminosity | Snow |
|---|---|---|---|---|---|---|---|
| 1777932439 | 18.89° C | 36% | 996 hPa | 0 mm | - | - | - |
| 1777932139 | 18.89° C | 36% | 996.1 hPa | 0 mm | - | - | - |
| 1777931839 | 18.33° C | 40% | 996.1 hPa | 0 mm | - | - | - |
| 1777931539 | 18.33° C | 38% | 996.3 hPa | 0 mm | - | - | - |
| 1777931239 | 18.33° C | 41% | 996.4 hPa | 0 mm | - | - | - |
| 1777930939 | 18.33° C | 42% | 996.4 hPa | 0 mm | - | - | - |
| 1777930639 | 17.78° C | 41% | 996.4 hPa | 0 mm | - | - | - |
| 1777930339 | 17.22° C | 41% | 996.5 hPa | 0 mm | - | - | - |
| 1777930039 | 17.22° C | 41% | 996.5 hPa | 0 mm | - | - | - |
| 1777929739 | 16.67° C | 43% | 996.5 hPa | 0 mm | - | - | - |
| 1777929439 | 16.67° C | 42% | 996.5 hPa | 0 mm | - | - | - |
| 1777929139 | 16.67° C | 42% | 996.6 hPa | 0 mm | - | - | - |
| 1777928839 | 16.67° C | 41% | 996.7 hPa | 0 mm | - | - | - |
| 1777928539 | 17.22° C | 40% | 996.9 hPa | 0 mm | - | - | - |
| 1777928239 | 17.22° C | 39% | 996.8 hPa | 0 mm | - | - | - |
| 1777927939 | 17.22° C | 39% | 996.8 hPa | 0 mm | - | - | - |
| 1777927639 | 17.22° C | 38% | 996.8 hPa | 0 mm | - | - | - |
| 1777927339 | 17.22° C | 37% | 996.7 hPa | 0 mm | - | - | - |
| 1777927039 | 17.78° C | 36% | 996.7 hPa | 0 mm | - | - | - |
| 1777926739 | 17.78° C | 36% | 996.7 hPa | 0 mm | - | - | - |
| 1777926439 | 17.78° C | 36% | 996.8 hPa | 0 mm | - | - | - |
| 1777926139 | 17.78° C | 35% | 996.9 hPa | 0 mm | - | - | - |
| 1777925839 | 17.78° C | 35% | 996.7 hPa | 0 mm | - | - | - |
| 1777925539 | 18.33° C | 35% | 996.7 hPa | 0 mm | - | - | - |
| 1777925239 | 18.33° C | 35% | 996.7 hPa | 0 mm | - | - | - |
* Rain latest hour (hover to see other rain measurements)
** Current wind speed in m/s (hover to see current wind gust speed)